Time,TemperatureF,DewpointF,PressureIn,WindDirection,WindDirectionDegrees,WindSpeedMPH,WindSpeedGustMPH,Humidity,HourlyPrecipIn,Conditions,Clouds,dailyrainin,SoftwareType,DateUTC
2013-05-06 00:01:00,56.4,52.6,29.99,WSW,237,0.0,0.0,87,0.00,,---,0.00,VWS V14.01,2013-05-06 07:01:00,
2013-05-06 00:06:00,56.5,52.4,29.99,WSW,237,0.0,0.0,86,0.00,,---,0.00,VWS V14.01,2013-05-06 07:06:00,
2013-05-06 00:11:00,56.6,52.5,29.99,WSW,237,0.0,1.0,86,0.00,,---,0.00,VWS V14.01,2013-05-06 07:11:00,
2013-05-06 00:16:00,56.7,52.6,29.99,SE,140,1.0,2.0,86,0.00,,---,0.00,VWS V14.01,2013-05-06 07:16:00,
2013-05-06 00:21:00,56.9,52.4,30.00,East,86,0.0,6.0,85,0.00,,---,0.00,VWS V14.01,2013-05-06 07:21:00,
2013-05-06 00:26:00,57.2,52.1,30.00,SSW,193,4.0,6.0,83,0.00,,---,0.00,VWS V14.01,2013-05-06 07:26:00,
2013-05-06 00:31:00,57.5,52.4,29.99,ESE,117,0.0,6.0,83,0.00,,---,0.00,VWS V14.01,2013-05-06 07:31:00,
2013-05-06 00:36:00,57.2,53.1,30.00,ESE,105,0.0,12.0,86,0.00,,---,0.00,VWS V14.01,2013-05-06 07:36:00,
2013-05-06 00:41:00,56.6,53.4,30.00,SSE,148,1.0,12.0,89,0.00,,---,0.00,VWS V14.01,2013-05-06 07:41:00,
2013-05-06 00:46:00,56.3,53.4,30.00,ESE,111,0.0,12.0,90,0.00,,---,0.00,VWS V14.01,2013-05-06 07:46:00,
2013-05-06 00:51:00,56.1,53.5,29.99,ENE,63,4.0,12.0,91,0.00,,---,0.00,VWS V14.01,2013-05-06 07:51:00,
2013-05-06 00:56:00,56.0,53.4,29.99,East,90,4.0,12.0,91,0.00,,---,0.00,VWS V14.01,2013-05-06 07:56:00,
2013-05-06 01:01:00,55.8,53.2,29.99,ENE,78,0.0,2.0,91,0.00,,---,0.00,VWS V14.01,2013-05-06 08:01:00,
2013-05-06 01:06:00,55.7,53.1,29.99,ESE,118,0.0,6.0,91,0.00,,---,0.00,VWS V14.01,2013-05-06 08:06:00,
2013-05-06 01:11:00,55.6,53.3,29.99,ESE,109,0.0,6.0,92,0.00,,---,0.00,VWS V14.01,2013-05-06 08:11:00,
2013-05-06 01:16:00,55.6,53.3,29.98,ENE,76,1.0,6.0,92,0.00,,---,0.00,VWS V14.01,2013-05-06 08:16:00,
2013-05-06 01:21:00,55.5,53.2,29.99,ESE,104,0.0,6.0,92,0.00,,---,0.00,VWS V14.01,2013-05-06 08:21:00,
2013-05-06 01:26:00,55.5,53.2,29.98,ENE,78,0.0,6.0,92,0.00,,---,0.00,VWS V14.01,2013-05-06 08:26:00,
2013-05-06 01:31:00,55.5,53.5,29.98,ENE,61,0.0,3.0,93,0.00,,---,0.00,VWS V14.01,2013-05-06 08:31:00,
2013-05-06 01:36:00,55.5,53.5,29.98,SE,126,0.0,3.0,93,0.01,,---,0.01,VWS V14.01,2013-05-06 08:36:00,
2013-05-06 01:41:00,55.5,53.5,29.98,ESE,109,2.0,4.0,93,0.01,,---,0.01,VWS V14.01,2013-05-06 08:41:00,
2013-05-06 01:46:00,55.5,53.5,29.98,ESE,119,0.0,4.0,93,0.01,,---,0.01,VWS V14.01,2013-05-06 08:46:00,
2013-05-06 01:51:00,55.5,53.8,29.98,SE,125,2.0,4.0,94,0.01,,---,0.01,VWS V14.01,2013-05-06 08:51:00,
2013-05-06 01:56:00,55.6,53.9,29.98,ESE,108,0.0,4.0,94,0.01,,---,0.01,VWS V14.01,2013-05-06 08:56:00,
2013-05-06 02:01:00,55.5,53.5,29.98,ESE,115,1.0,5.0,93,0.01,,---,0.01,VWS V14.01,2013-05-06 09:01:00,
2013-05-06 02:06:00,55.4,53.4,29.98,ESE,121,0.0,5.0,93,0.01,,---,0.01,VWS V14.01,2013-05-06 09:06:00,
2013-05-06 02:11:00,55.4,53.7,29.98,NE,51,0.0,5.0,94,0.01,,---,0.01,VWS V14.01,2013-05-06 09:11:00,
2013-05-06 02:16:00,55.4,53.7,29.97,ESE,118,0.0,5.0,94,0.01,,---,0.01,VWS V14.01,2013-05-06 09:16:00,
2013-05-06 02:21:00,55.4,53.7,29.97,ESE,118,0.0,5.0,94,0.02,,---,0.02,VWS V14.01,2013-05-06 09:21:00,
2013-05-06 02:26:00,55.4,53.7,29.97,ESE,118,0.0,5.0,94,0.02,,---,0.02,VWS V14.01,2013-05-06 09:26:00,
2013-05-06 02:31:00,55.5,53.8,29.97,ESE,118,0.0,1.0,94,0.02,,---,0.02,VWS V14.01,2013-05-06 09:31:00,
2013-05-06 02:36:00,55.5,53.8,29.97,ESE,118,0.0,1.0,94,0.04,,---,0.04,VWS V14.01,2013-05-06 09:36:00,
2013-05-06 02:41:00,55.5,53.8,29.97,ESE,118,0.0,1.0,94,0.04,,---,0.04,VWS V14.01,2013-05-06 09:41:00,
2013-05-06 02:46:00,55.5,53.8,29.97,ESE,118,0.0,4.0,94,0.04,,---,0.04,VWS V14.01,2013-05-06 09:46:00,
2013-05-06 02:51:00,55.5,53.8,29.97,East,86,0.0,4.0,94,0.04,,---,0.04,VWS V14.01,2013-05-06 09:51:00,
2013-05-06 02:56:00,55.5,53.8,29.97,East,80,0.0,4.0,94,0.04,,---,0.04,VWS V14.01,2013-05-06 09:56:00,
2013-05-06 03:01:00,55.5,54.1,29.97,East,80,0.0,0.0,95,0.03,,---,0.04,VWS V14.01,2013-05-06 10:01:00,
2013-05-06 03:06:00,55.5,54.1,29.97,East,80,0.0,2.0,95,0.03,,---,0.04,VWS V14.01,2013-05-06 10:06:00,
2013-05-06 03:11:00,55.5,54.1,29.97,East,80,0.0,2.0,95,0.03,,---,0.04,VWS V14.01,2013-05-06 10:11:00,
2013-05-06 03:16:00,55.5,54.1,29.96,East,80,0.0,2.0,95,0.04,,---,0.05,VWS V14.01,2013-05-06 10:16:00,
2013-05-06 03:21:00,55.5,54.1,29.96,ENE,65,0.0,2.0,95,0.05,,---,0.06,VWS V14.01,2013-05-06 10:21:00,
2013-05-06 03:26:00,55.5,54.1,29.96,ENE,73,0.0,2.0,95,0.05,,---,0.06,VWS V14.01,2013-05-06 10:26:00,
2013-05-06 03:31:00,55.5,54.1,29.96,ENE,61,0.0,3.0,95,0.05,,---,0.07,VWS V14.01,2013-05-06 10:31:00,
2013-05-06 03:36:00,55.4,54.0,29.96,ENE,67,0.0,3.0,95,0.06,,---,0.08,VWS V14.01,2013-05-06 10:36:00,
2013-05-06 03:41:00,55.4,54.0,29.96,ENE,67,0.0,3.0,95,0.06,,---,0.08,VWS V14.01,2013-05-06 10:41:00,
2013-05-06 03:46:00,55.4,54.0,29.96,ENE,67,0.0,3.0,95,0.08,,---,0.10,VWS V14.01,2013-05-06 10:46:00,
2013-05-06 03:51:00,55.4,54.0,29.96,ENE,67,0.0,3.0,95,0.10,,---,0.12,VWS V14.01,2013-05-06 10:51:00,
2013-05-06 03:56:00,55.3,53.9,29.96,ENE,71,0.0,3.0,95,0.10,,---,0.12,VWS V14.01,2013-05-06 10:56:00,
2013-05-06 04:01:00,55.2,53.8,29.96,NE,40,0.0,2.0,95,0.08,,---,0.12,VWS V14.01,2013-05-06 11:01:00,
2013-05-06 04:06:00,55.2,53.8,29.96,ENE,64,0.0,2.0,95,0.09,,---,0.13,VWS V14.01,2013-05-06 11:06:00,
2013-05-06 04:11:00,55.1,53.7,29.96,NE,53,0.0,3.0,95,0.09,,---,0.13,VWS V14.01,2013-05-06 11:11:00,
2013-05-06 04:16:00,55.1,53.7,29.96,East,94,0.0,6.0,95,0.10,,---,0.14,VWS V14.01,2013-05-06 11:16:00,
2013-05-06 04:21:00,55.1,53.7,29.96,NE,53,2.0,6.0,95,0.10,,---,0.14,VWS V14.01,2013-05-06 11:21:00,
2013-05-06 04:26:00,55.0,53.6,29.96,East,98,0.0,6.0,95,0.11,,---,0.15,VWS V14.01,2013-05-06 11:26:00,
2013-05-06 04:31:00,55.0,53.6,29.96,ENE,68,0.0,3.0,95,0.09,,---,0.15,VWS V14.01,2013-05-06 11:31:00,
2013-05-06 04:36:00,55.0,53.9,29.96,East,86,0.0,3.0,96,0.10,,---,0.16,VWS V14.01,2013-05-06 11:36:00,
2013-05-06 04:41:00,55.0,53.9,29.96,ENE,68,2.0,4.0,96,0.10,,---,0.16,VWS V14.01,2013-05-06 11:41:00,
2013-05-06 04:46:00,54.7,53.3,29.96,NE,55,2.0,5.0,95,0.11,,---,0.17,VWS V14.01,2013-05-06 11:46:00,
2013-05-06 04:51:00,54.6,53.5,29.95,NNE,16,2.0,6.0,96,0.12,,---,0.18,VWS V14.01,2013-05-06 11:51:00,
2013-05-06 04:56:00,54.4,53.0,29.96,NNE,17,0.0,8.0,95,0.13,,---,0.19,VWS V14.01,2013-05-06 11:56:00,
2013-05-06 05:01:00,54.2,52.8,29.96,ENE,74,1.0,7.0,95,0.08,,---,0.20,VWS V14.01,2013-05-06 12:01:00,
2013-05-06 05:06:00,54.1,52.7,29.95,ENE,62,0.0,7.0,95,0.09,,---,0.21,VWS V14.01,2013-05-06 12:06:00,
2013-05-06 05:11:00,54.1,52.7,29.95,NE,44,3.0,7.0,95,0.09,,---,0.21,VWS V14.01,2013-05-06 12:11:00,
2013-05-06 05:16:00,54.1,52.7,29.95,North,5,3.0,7.0,95,0.09,,---,0.21,VWS V14.01,2013-05-06 12:16:00,
2013-05-06 05:21:00,54.1,53.0,29.95,NNE,17,1.0,11.0,96,0.09,,---,0.21,VWS V14.01,2013-05-06 12:21:00,
2013-05-06 05:26:00,54.2,53.1,29.95,ENE,71,4.0,11.0,96,0.10,,---,0.22,VWS V14.01,2013-05-06 12:26:00,
2013-05-06 05:31:00,54.2,52.8,29.95,NNE,19,1.0,7.0,95,0.07,,---,0.22,VWS V14.01,2013-05-06 12:31:00,
2013-05-06 05:36:00,54.3,52.9,29.95,NE,42,2.0,7.0,95,0.07,,---,0.22,VWS V14.01,2013-05-06 12:36:00,
2013-05-06 05:41:00,54.3,52.9,29.95,East,85,1.0,8.0,95,0.07,,---,0.22,VWS V14.01,2013-05-06 12:41:00,
2013-05-06 05:46:00,54.4,53.0,29.95,ENE,72,0.0,8.0,95,0.07,,---,0.22,VWS V14.01,2013-05-06 12:46:00,
2013-05-06 05:51:00,54.4,53.0,29.95,East,101,0.0,8.0,95,0.07,,---,0.22,VWS V14.01,2013-05-06 12:51:00,
2013-05-06 05:56:00,54.5,53.4,29.95,ESE,109,0.0,8.0,96,0.07,,---,0.22,VWS V14.01,2013-05-06 12:56:00,
2013-05-06 06:01:00,54.6,53.5,29.96,NE,38,0.0,2.0,96,0.02,,---,0.22,VWS V14.01,2013-05-06 13:01:00,
2013-05-06 06:06:00,54.8,53.7,29.96,SE,138,4.0,6.0,96,0.02,,---,0.22,VWS V14.01,2013-05-06 13:06:00,
2013-05-06 06:11:00,55.2,54.1,29.96,SE,125,0.0,6.0,96,0.02,,---,0.22,VWS V14.01,2013-05-06 13:11:00,
2013-05-06 06:16:00,55.3,54.2,29.97,SSE,163,0.0,6.0,96,0.02,,---,0.22,VWS V14.01,2013-05-06 13:16:00,
2013-05-06 06:21:00,55.5,54.4,29.97,SE,132,0.0,6.0,96,0.02,,---,0.22,VWS V14.01,2013-05-06 13:21:00,
2013-05-06 06:25:00,55.5,54.4,29.97,ESE,106,0.0,6.0,96,0.02,,---,0.22,VWS V14.01,2013-05-06 13:25:00,
2013-05-06 06:30:00,55.6,54.5,29.97,ESE,108,0.0,0.0,96,0.00,,---,0.22,VWS V14.01,2013-05-06 13:30:00,
2013-05-06 06:35:00,55.6,54.5,29.98,ESE,107,0.0,1.0,96,0.00,,---,0.22,VWS V14.01,2013-05-06 13:35:00,
2013-05-06 06:40:00,55.7,54.6,29.98,ESE,107,0.0,1.0,96,0.00,,---,0.22,VWS V14.01,2013-05-06 13:40:00,
2013-05-06 06:45:00,55.8,54.7,29.98,ESE,107,0.0,1.0,96,0.00,,---,0.22,VWS V14.01,2013-05-06 13:45:00,
2013-05-06 06:50:00,55.9,54.8,29.98,ESE,107,0.0,1.0,96,0.00,,---,0.22,VWS V14.01,2013-05-06 13:50:00,
2013-05-06 06:55:00,56.0,54.9,29.99,ESE,108,0.0,1.0,96,0.00,,---,0.22,VWS V14.01,2013-05-06 13:55:00,
2013-05-06 07:00:00,56.1,55.3,29.99,ESE,107,0.0,1.0,97,0.00,,---,0.22,VWS V14.01,2013-05-06 14:00:00,
2013-05-06 07:05:00,56.2,55.4,29.99,ESE,107,0.0,1.0,97,0.00,,---,0.22,VWS V14.01,2013-05-06 14:05:00,
2013-05-06 07:10:00,56.2,55.4,29.99,ESE,107,0.0,1.0,97,0.00,,---,0.22,VWS V14.01,2013-05-06 14:10:00,
2013-05-06 07:15:00,56.3,55.5,30.00,ESE,108,0.0,1.0,97,0.00,,---,0.22,VWS V14.01,2013-05-06 14:15:00,
2013-05-06 07:20:00,56.5,55.4,30.00,ESE,108,0.0,2.0,96,0.00,,---,0.22,VWS V14.01,2013-05-06 14:20:00,
2013-05-06 07:25:00,56.6,55.8,30.00,ESE,107,0.0,2.0,97,0.00,,---,0.22,VWS V14.01,2013-05-06 14:25:00,
2013-05-06 07:30:00,56.8,56.0,30.00,ESE,108,0.0,0.0,97,0.00,,---,0.22,VWS V14.01,2013-05-06 14:30:00,
2013-05-06 07:40:00,56.9,56.1,30.00,ESE,108,0.0,0.0,97,0.01,,---,0.23,VWS V14.01,2013-05-06 14:40:00,
2013-05-06 07:45:00,57.0,56.2,30.00,NNE,19,2.0,3.0,97,0.01,,---,0.23,VWS V14.01,2013-05-06 14:45:00,
2013-05-06 07:50:00,57.2,56.4,30.00,ESE,110,1.0,5.0,97,0.01,,---,0.23,VWS V14.01,2013-05-06 14:50:00,
2013-05-06 07:55:00,57.4,56.6,30.01,ESE,123,0.0,6.0,97,0.01,,---,0.23,VWS V14.01,2013-05-06 14:55:00,
2013-05-06 08:00:00,57.6,56.8,30.01,South,186,0.0,1.0,97,0.01,,---,0.23,VWS V14.01,2013-05-06 15:00:00,
2013-05-06 08:05:00,57.7,56.9,30.01,SW,214,0.0,1.0,97,0.01,,---,0.23,VWS V14.01,2013-05-06 15:05:00,
2013-05-06 08:10:00,57.8,57.0,30.01,SSE,158,0.0,1.0,97,0.01,,---,0.23,VWS V14.01,2013-05-06 15:10:00,
2013-05-06 08:15:00,57.7,56.9,30.01,SE,129,5.0,6.0,97,0.01,,---,0.23,VWS V14.01,2013-05-06 15:15:00,
2013-05-06 08:20:00,57.5,56.4,30.01,ESE,107,0.0,6.0,96,0.01,,---,0.23,VWS V14.01,2013-05-06 15:20:00,
2013-05-06 08:25:00,57.5,56.4,30.01,ESE,113,0.0,6.0,96,0.01,,---,0.23,VWS V14.01,2013-05-06 15:25:00,
2013-05-06 08:30:00,57.5,56.4,30.01,SE,126,0.0,5.0,96,0.01,,---,0.23,VWS V14.01,2013-05-06 15:30:00,
2013-05-06 08:35:00,57.6,56.5,30.01,ESE,114,1.0,5.0,96,0.01,,---,0.23,VWS V14.01,2013-05-06 15:35:00,
2013-05-06 08:40:00,57.7,56.6,30.00,ESE,106,0.0,5.0,96,0.01,,---,0.23,VWS V14.01,2013-05-06 15:40:00,
2013-05-06 08:45:00,57.8,56.7,30.01,ESE,106,0.0,5.0,96,0.01,,---,0.23,VWS V14.01,2013-05-06 15:45:00,
2013-05-06 08:50:00,58.2,57.4,30.01,NE,54,0.0,5.0,97,0.01,,---,0.23,VWS V14.01,2013-05-06 15:50:00,
2013-05-06 08:55:00,58.6,57.8,30.01,East,88,0.0,5.0,97,0.01,,---,0.23,VWS V14.01,2013-05-06 15:55:00,
2013-05-06 09:00:00,58.3,57.2,30.02,SE,137,0.0,0.0,96,0.00,,---,0.23,VWS V14.01,2013-05-06 16:00:00,
2013-05-06 09:05:00,58.2,57.1,30.02,SE,137,0.0,0.0,96,0.00,,---,0.23,VWS V14.01,2013-05-06 16:05:00,
2013-05-06 09:10:00,58.2,57.1,30.02,SE,131,0.0,0.0,96,0.00,,---,0.23,VWS V14.01,2013-05-06 16:10:00,
2013-05-06 09:15:00,58.1,57.0,30.02,ESE,108,1.0,2.0,96,0.00,,---,0.23,VWS V14.01,2013-05-06 16:15:00,
2013-05-06 09:20:00,58.0,56.6,30.02,SSW,202,1.0,5.0,95,0.05,,---,0.28,VWS V14.01,2013-05-06 16:20:00,
2013-05-06 09:25:00,57.5,56.1,30.02,SE,128,0.0,5.0,95,0.06,,---,0.29,VWS V14.01,2013-05-06 16:25:00,
2013-05-06 09:30:00,57.5,56.1,30.02,East,98,0.0,2.0,95,0.06,,---,0.29,VWS V14.01,2013-05-06 16:30:00,
2013-05-06 09:35:00,57.1,55.7,30.02,SE,134,2.0,2.0,95,0.06,,---,0.29,VWS V14.01,2013-05-06 16:35:00,
2013-05-06 09:40:00,56.9,55.5,30.02,ESE,113,0.0,6.0,95,0.06,,---,0.29,VWS V14.01,2013-05-06 16:40:00,
2013-05-06 09:45:00,57.2,56.1,30.02,South,173,0.0,6.0,96,0.06,,---,0.29,VWS V14.01,2013-05-06 16:45:00,
2013-05-06 09:50:00,57.7,56.6,30.02,East,85,0.0,6.0,96,0.06,,---,0.29,VWS V14.01,2013-05-06 16:50:00,
2013-05-06 09:55:00,58.4,57.6,30.02,ESE,102,0.0,6.0,97,0.06,,---,0.29,VWS V14.01,2013-05-06 16:55:00,
2013-05-06 10:00:00,58.9,57.8,30.02,ESE,108,1.0,1.0,96,0.06,,---,0.29,VWS V14.01,2013-05-06 17:00:00,
2013-05-06 10:05:00,59.6,58.8,30.02,ESE,111,0.0,4.0,97,0.06,,---,0.29,VWS V14.01,2013-05-06 17:05:00,
2013-05-06 10:10:00,59.6,58.2,30.02,ESE,116,5.0,5.0,95,0.06,,---,0.29,VWS V14.01,2013-05-06 17:10:00,
2013-05-06 10:15:00,59.5,57.8,30.02,SE,139,0.0,5.0,94,0.06,,---,0.29,VWS V14.01,2013-05-06 17:15:00,
2013-05-06 10:20:00,60.4,58.7,30.02,SE,130,0.0,7.0,94,0.06,,---,0.29,VWS V14.01,2013-05-06 17:20:00,
2013-05-06 10:25:00,60.2,57.3,30.03,SE,134,4.0,7.0,90,0.06,,---,0.29,VWS V14.01,2013-05-06 17:25:00,
2013-05-06 10:30:00,60.1,56.8,30.03,ESE,115,0.0,5.0,89,0.00,,---,0.29,VWS V14.01,2013-05-06 17:30:00,
2013-05-06 10:35:00,60.4,57.5,30.03,SW,219,0.0,5.0,90,0.00,,---,0.29,VWS V14.01,2013-05-06 17:35:00,
2013-05-06 10:40:00,61.1,57.5,30.03,East,99,1.0,5.0,88,0.00,,---,0.29,VWS V14.01,2013-05-06 17:40:00,
2013-05-06 10:44:00,61.1,56.9,30.03,East,92,0.0,5.0,86,0.00,,---,0.29,VWS V14.01,2013-05-06 17:44:00,
2013-05-06 10:49:00,61.0,57.1,30.03,NE,53,0.0,5.0,87,0.00,,---,0.29,VWS V14.01,2013-05-06 17:49:00,
2013-05-06 10:54:00,60.9,56.7,30.03,West,264,5.0,5.0,86,0.00,,---,0.29,VWS V14.01,2013-05-06 17:54:00,
2013-05-06 10:59:00,60.8,56.9,30.03,North,5,0.0,1.0,87,0.00,,---,0.29,VWS V14.01,2013-05-06 17:59:00,
2013-05-06 11:04:00,61.1,56.2,30.03,SSE,159,0.0,5.0,84,0.00,,---,0.29,VWS V14.01,2013-05-06 18:04:00,
2013-05-06 11:09:00,61.3,56.1,30.03,South,188,2.0,5.0,83,0.00,,---,0.29,VWS V14.01,2013-05-06 18:09:00,
2013-05-06 11:14:00,61.3,55.8,30.03,East,96,0.0,5.0,82,0.00,,---,0.29,VWS V14.01,2013-05-06 18:14:00,
2013-05-06 11:19:00,61.5,56.3,30.04,SSW,212,0.0,5.0,83,0.00,,---,0.29,VWS V14.01,2013-05-06 18:19:00,
2013-05-06 11:24:00,61.7,57.5,30.04,SSW,209,0.0,5.0,86,0.00,,---,0.29,VWS V14.01,2013-05-06 18:24:00,
2013-05-06 11:29:00,61.9,56.7,30.04,NE,38,0.0,2.0,83,0.00,,---,0.29,VWS V14.01,2013-05-06 18:29:00,
2013-05-06 11:34:00,62.2,57.0,30.04,SW,229,0.0,7.0,83,0.00,,---,0.29,VWS V14.01,2013-05-06 18:34:00,
2013-05-06 11:39:00,62.3,56.7,30.04,WSW,241,0.0,7.0,82,0.00,,---,0.29,VWS V14.01,2013-05-06 18:39:00,
2013-05-06 11:44:00,62.3,56.7,30.04,ESE,113,0.0,7.0,82,0.00,,---,0.29,VWS V14.01,2013-05-06 18:44:00,
2013-05-06 11:49:00,62.5,56.9,30.04,South,171,0.0,7.0,82,0.00,,---,0.29,VWS V14.01,2013-05-06 18:49:00,
2013-05-06 11:54:00,62.4,55.8,30.04,SW,221,0.0,7.0,79,0.00,,---,0.29,VWS V14.01,2013-05-06 18:54:00,
2013-05-06 11:59:00,62.4,55.8,30.04,WSW,257,0.0,1.0,79,0.00,,---,0.29,VWS V14.01,2013-05-06 18:59:00,
2013-05-06 12:04:00,62.5,55.9,30.04,SW,226,0.0,2.0,79,0.00,,---,0.29,VWS V14.01,2013-05-06 19:04:00,
2013-05-06 12:09:00,62.7,56.5,30.03,South,191,0.0,4.0,80,0.00,,---,0.29,VWS V14.01,2013-05-06 19:09:00,
2013-05-06 12:14:00,62.7,56.8,30.03,SSW,212,0.0,4.0,81,0.00,,---,0.29,VWS V14.01,2013-05-06 19:14:00,
2013-05-06 12:19:00,63.1,57.2,30.03,SSW,209,0.0,4.0,81,0.00,,---,0.29,VWS V14.01,2013-05-06 19:19:00,
2013-05-06 12:24:00,63.4,56.8,30.03,WNW,294,1.0,4.0,79,0.00,,---,0.29,VWS V14.01,2013-05-06 19:24:00,
2013-05-06 12:29:00,63.5,56.5,30.03,SSW,201,3.0,5.0,78,0.00,,---,0.29,VWS V14.01,2013-05-06 19:29:00,
2013-05-06 12:34:00,63.6,55.5,30.03,SSW,202,0.0,5.0,75,0.00,,---,0.29,VWS V14.01,2013-05-06 19:34:00,
2013-05-06 12:39:00,63.7,56.0,30.03,South,183,6.0,6.0,76,0.00,,---,0.29,VWS V14.01,2013-05-06 19:39:00,
2013-05-06 12:44:00,63.8,56.1,30.03,NW,304,0.0,7.0,76,0.00,,---,0.29,VWS V14.01,2013-05-06 19:44:00,
2013-05-06 12:49:00,64.0,55.2,30.03,South,173,0.0,7.0,73,0.00,,---,0.29,VWS V14.01,2013-05-06 19:49:00,
2013-05-06 12:54:00,63.8,54.6,30.03,SSW,196,0.0,7.0,72,0.00,,---,0.29,VWS V14.01,2013-05-06 19:54:00,
2013-05-06 12:59:00,63.6,54.4,30.03,South,174,1.0,4.0,72,0.00,,---,0.29,VWS V14.01,2013-05-06 19:59:00,
2013-05-06 13:04:00,63.5,54.7,30.03,SW,218,3.0,4.0,73,0.00,,---,0.29,VWS V14.01,2013-05-06 20:04:00,
2013-05-06 13:09:00,63.4,54.6,30.03,SSE,165,0.0,5.0,73,0.00,,---,0.29,VWS V14.01,2013-05-06 20:09:00,
2013-05-06 13:14:00,63.3,53.8,30.03,SSW,208,0.0,7.0,71,0.00,,---,0.29,VWS V14.01,2013-05-06 20:14:00,
2013-05-06 13:19:00,63.4,54.6,30.02,South,170,0.0,7.0,73,0.00,,---,0.29,VWS V14.01,2013-05-06 20:19:00,
2013-05-06 13:24:00,63.8,54.6,30.03,NNE,33,0.0,7.0,72,0.00,,---,0.29,VWS V14.01,2013-05-06 20:24:00,
2013-05-06 13:29:00,63.9,53.9,30.03,ESE,113,4.0,5.0,70,0.00,,---,0.29,VWS V14.01,2013-05-06 20:29:00,
2013-05-06 13:34:00,63.9,53.9,30.03,NE,50,0.0,5.0,70,0.00,,---,0.29,VWS V14.01,2013-05-06 20:34:00,
2013-05-06 13:39:00,64.3,54.3,30.03,SSE,156,0.0,5.0,70,0.00,,---,0.29,VWS V14.01,2013-05-06 20:39:00,
2013-05-06 13:44:00,64.8,54.0,30.02,SE,139,1.0,6.0,68,0.00,,---,0.29,VWS V14.01,2013-05-06 20:44:00,
2013-05-06 13:49:00,65.4,55.0,30.03,East,84,0.0,6.0,69,0.00,,---,0.29,VWS V14.01,2013-05-06 20:49:00,
2013-05-06 13:54:00,66.3,55.0,30.03,ENE,57,4.0,6.0,67,0.00,,---,0.29,VWS V14.01,2013-05-06 20:54:00,
2013-05-06 13:59:00,66.6,54.5,30.02,SW,219,0.0,1.0,65,0.00,,---,0.29,VWS V14.01,2013-05-06 20:59:00,
2013-05-06 14:04:00,66.6,53.6,30.02,East,101,1.0,8.0,63,0.00,,---,0.29,VWS V14.01,2013-05-06 21:04:00,
2013-05-06 14:09:00,65.9,53.4,30.02,ESE,108,4.0,9.0,64,0.00,,---,0.29,VWS V14.01,2013-05-06 21:09:00,
2013-05-06 14:14:00,65.9,53.8,30.02,East,80,0.0,9.0,65,0.00,,---,0.29,VWS V14.01,2013-05-06 21:14:00,
2013-05-06 14:19:00,65.9,53.4,30.02,NE,44,0.0,9.0,64,0.00,,---,0.29,VWS V14.01,2013-05-06 21:19:00,
2013-05-06 14:24:00,65.4,52.5,30.02,ESE,113,0.0,9.0,63,0.00,,---,0.29,VWS V14.01,2013-05-06 21:24:00,
2013-05-06 14:29:00,65.2,52.7,30.02,South,171,0.0,7.0,64,0.00,,---,0.29,VWS V14.01,2013-05-06 21:29:00,
2013-05-06 14:34:00,65.0,53.4,30.02,South,171,0.0,7.0,66,0.00,,---,0.29,VWS V14.01,2013-05-06 21:34:00,
2013-05-06 14:39:00,65.0,53.4,30.02,SE,134,5.0,7.0,66,0.00,,---,0.29,VWS V14.01,2013-05-06 21:39:00,
2013-05-06 14:44:00,64.8,53.6,30.02,SE,140,1.0,7.0,67,0.00,,---,0.29,VWS V14.01,2013-05-06 21:44:00,
2013-05-06 14:49:00,64.7,54.3,30.02,NE,38,0.0,7.0,69,0.00,,---,0.29,VWS V14.01,2013-05-06 21:49:00,
2013-05-06 14:54:00,64.9,55.3,30.02,WSW,244,0.0,7.0,71,0.00,,---,0.29,VWS V14.01,2013-05-06 21:54:00,
2013-05-06 14:59:00,64.7,55.9,30.02,West,275,0.0,1.0,73,0.00,,---,0.29,VWS V14.01,2013-05-06 21:59:00,
2013-05-06 15:04:00,64.3,55.8,30.02,South,175,0.0,5.0,74,0.00,,---,0.29,VWS V14.01,2013-05-06 22:04:00,
2013-05-06 15:09:00,64.2,54.6,30.02,SSW,192,0.0,7.0,71,0.00,,---,0.29,VWS V14.01,2013-05-06 22:09:00,
2013-05-06 15:14:00,64.1,54.1,30.02,South,191,1.0,7.0,70,0.00,,---,0.29,VWS V14.01,2013-05-06 22:14:00,
2013-05-06 15:19:00,64.1,54.5,30.02,East,101,0.0,7.0,71,0.00,,---,0.29,VWS V14.01,2013-05-06 22:19:00,
2013-05-06 15:24:00,64.5,54.9,30.02,SSW,207,0.0,7.0,71,0.00,,---,0.29,VWS V14.01,2013-05-06 22:24:00,
2013-05-06 15:29:00,64.6,54.6,30.02,SW,234,0.0,1.0,70,0.00,,---,0.29,VWS V14.01,2013-05-06 22:29:00,
2013-05-06 15:34:00,64.6,55.0,30.02,SSE,149,0.0,8.0,71,0.00,,---,0.29,VWS V14.01,2013-05-06 22:34:00,
2013-05-06 15:39:00,63.7,56.0,30.02,SSE,167,0.0,8.0,76,0.00,,---,0.29,VWS V14.01,2013-05-06 22:39:00,
2013-05-06 15:44:00,63.1,55.4,30.02,SW,218,0.0,8.0,76,0.00,,---,0.29,VWS V14.01,2013-05-06 22:44:00,
2013-05-06 15:49:00,62.8,55.5,30.01,South,173,0.0,8.0,77,0.00,,---,0.29,VWS V14.01,2013-05-06 22:49:00,
2013-05-06 15:54:00,62.9,55.2,30.01,SW,218,1.0,8.0,76,0.00,,---,0.29,VWS V14.01,2013-05-06 22:54:00,
2013-05-06 15:59:00,62.7,54.7,30.01,South,188,0.0,6.0,75,0.00,,---,0.29,VWS V14.01,2013-05-06 22:59:00,
2013-05-06 16:04:00,62.4,54.8,30.01,WSW,242,0.0,8.0,76,0.00,,---,0.29,VWS V14.01,2013-05-06 23:04:00,
2013-05-06 16:09:00,62.2,54.9,30.01,SSW,201,0.0,8.0,77,0.00,,---,0.29,VWS V14.01,2013-05-06 23:09:00,
2013-05-06 16:14:00,62.1,55.2,30.01,SSE,164,0.0,9.0,78,0.00,,---,0.29,VWS V14.01,2013-05-06 23:14:00,
2013-05-06 16:19:00,62.0,55.1,30.01,WSW,248,0.0,9.0,78,0.00,,---,0.29,VWS V14.01,2013-05-06 23:19:00,
2013-05-06 16:24:00,62.3,55.0,30.01,North,349,0.0,9.0,77,0.00,,---,0.29,VWS V14.01,2013-05-06 23:24:00,
2013-05-06 16:29:00,62.8,55.8,30.01,SSW,211,1.0,6.0,78,0.00,,---,0.29,VWS V14.01,2013-05-06 23:29:00,
2013-05-06 16:34:00,63.0,55.7,30.01,SSE,167,0.0,6.0,77,0.00,,---,0.29,VWS V14.01,2013-05-06 23:34:00,
2013-05-06 16:39:00,63.2,55.2,30.01,South,182,4.0,7.0,75,0.00,,---,0.29,VWS V14.01,2013-05-06 23:39:00,
2013-05-06 16:44:00,63.2,55.9,30.01,SSE,157,0.0,7.0,77,0.00,,---,0.29,VWS V14.01,2013-05-06 23:44:00,
2013-05-06 16:49:00,63.0,55.7,30.01,WSW,250,0.0,7.0,77,0.00,,---,0.29,VWS V14.01,2013-05-06 23:49:00,
2013-05-06 16:54:00,62.4,54.4,30.01,SSE,161,1.0,7.0,75,0.00,,---,0.29,VWS V14.01,2013-05-06 23:54:00,
2013-05-06 16:59:00,62.0,53.6,30.01,WSW,252,2.0,5.0,74,0.00,,---,0.29,VWS V14.01,2013-05-06 23:59:00,
2013-05-06 17:04:00,61.9,53.2,30.01,WNW,294,4.0,7.0,73,0.00,,---,0.29,VWS V14.01,2013-05-07 00:04:00,
2013-05-06 17:09:00,62.0,53.6,30.01,NE,54,0.0,7.0,74,0.00,,---,0.29,VWS V14.01,2013-05-07 00:09:00,
2013-05-06 17:14:00,62.3,53.9,30.01,ESE,119,0.0,7.0,74,0.00,,---,0.29,VWS V14.01,2013-05-07 00:14:00,
2013-05-06 17:19:00,62.5,54.1,30.02,SE,124,0.0,7.0,74,0.00,,---,0.29,VWS V14.01,2013-05-07 00:19:00,
2013-05-06 17:24:00,62.7,54.3,30.02,ESE,121,5.0,11.0,74,0.00,,---,0.29,VWS V14.01,2013-05-07 00:24:00,
2013-05-06 17:29:00,63.2,54.8,30.01,NNE,29,0.0,7.0,74,0.00,,---,0.29,VWS V14.01,2013-05-07 00:29:00,
2013-05-06 17:34:00,63.7,54.9,30.01,ESE,121,0.0,8.0,73,0.00,,---,0.29,VWS V14.01,2013-05-07 00:34:00,
2013-05-06 17:39:00,63.9,55.1,30.01,NW,316,0.0,8.0,73,0.00,,---,0.29,VWS V14.01,2013-05-07 00:39:00,
2013-05-06 17:44:00,63.4,54.2,30.02,East,85,3.0,8.0,72,0.00,,---,0.29,VWS V14.01,2013-05-07 00:44:00,
2013-05-06 17:49:00,62.8,53.3,30.02,NNW,333,0.0,8.0,71,0.00,,---,0.29,VWS V14.01,2013-05-07 00:49:00,
2013-05-06 17:54:00,62.5,52.2,30.02,ESE,114,0.0,10.0,69,0.00,,---,0.29,VWS V14.01,2013-05-07 00:54:00,
2013-05-06 17:59:00,62.5,52.2,30.02,ESE,117,1.0,6.0,69,0.00,,---,0.29,VWS V14.01,2013-05-07 00:59:00,
2013-05-06 18:04:00,62.3,52.8,30.02,ESE,103,2.0,9.0,71,0.00,,---,0.29,VWS V14.01,2013-05-07 01:04:00,
2013-05-06 18:09:00,62.3,52.8,30.01,ESE,121,2.0,9.0,71,0.00,,---,0.29,VWS V14.01,2013-05-07 01:09:00,
2013-05-06 18:14:00,62.2,53.1,30.02,SE,144,6.0,9.0,72,0.00,,---,0.29,VWS V14.01,2013-05-07 01:14:00,
2013-05-06 18:19:00,62.1,53.3,30.01,SSE,155,0.0,9.0,73,0.00,,---,0.29,VWS V14.01,2013-05-07 01:19:00,
2013-05-06 18:24:00,62.0,53.3,30.01,SSE,147,0.0,9.0,73,0.00,,---,0.29,VWS V14.01,2013-05-07 01:24:00,
2013-05-06 18:29:00,62.0,52.9,30.01,SSW,202,1.0,2.0,72,0.00,,---,0.29,VWS V14.01,2013-05-07 01:29:00,
2013-05-06 18:34:00,61.9,52.0,30.02,NE,38,1.0,4.0,70,0.00,,---,0.29,VWS V14.01,2013-05-07 01:34:00,
2013-05-06 18:39:00,61.9,52.4,30.01,East,101,0.0,5.0,71,0.00,,---,0.29,VWS V14.01,2013-05-07 01:39:00,
2013-05-06 18:44:00,61.7,52.2,30.02,NE,40,4.0,5.0,71,0.00,,---,0.29,VWS V14.01,2013-05-07 01:44:00,
2013-05-06 18:49:00,61.6,52.9,30.02,ENE,76,0.0,5.0,73,0.00,,---,0.29,VWS V14.01,2013-05-07 01:49:00,
2013-05-06 18:54:00,61.4,52.7,30.02,ESE,105,0.0,5.0,73,0.00,,---,0.29,VWS V14.01,2013-05-07 01:54:00,
2013-05-06 18:59:00,61.3,53.0,30.02,SE,135,0.0,0.0,74,0.00,,---,0.29,VWS V14.01,2013-05-07 01:59:00,
2013-05-06 19:04:00,61.1,53.5,30.02,ESE,106,0.0,5.0,76,0.00,,---,0.29,VWS V14.01,2013-05-07 02:04:00,
2013-05-06 19:09:00,60.9,54.0,30.02,ESE,108,0.0,5.0,78,0.00,,---,0.29,VWS V14.01,2013-05-07 02:09:00,
2013-05-06 19:14:00,60.8,53.9,30.02,East,84,0.0,6.0,78,0.00,,---,0.29,VWS V14.01,2013-05-07 02:14:00,
2013-05-06 19:19:00,60.7,54.2,30.02,NE,56,0.0,6.0,79,0.00,,---,0.29,VWS V14.01,2013-05-07 02:19:00,
2013-05-06 19:24:00,60.6,54.1,30.02,East,80,0.0,6.0,79,0.00,,---,0.29,VWS V14.01,2013-05-07 02:24:00,
2013-05-06 19:29:00,60.5,54.0,30.02,SE,140,4.0,5.0,79,0.00,,---,0.29,VWS V14.01,2013-05-07 02:29:00,
2013-05-06 19:34:00,60.4,54.2,30.03,ESE,114,0.0,5.0,80,0.00,,---,0.29,VWS V14.01,2013-05-07 02:34:00,
2013-05-06 19:39:00,60.3,54.5,30.03,East,84,0.0,6.0,81,0.00,,---,0.29,VWS V14.01,2013-05-07 02:39:00,
2013-05-06 19:44:00,60.2,54.7,30.03,South,177,0.0,6.0,82,0.00,,---,0.29,VWS V14.01,2013-05-07 02:44:00,
2013-05-06 19:49:00,60.2,54.7,30.03,SSW,203,0.0,6.0,82,0.00,,---,0.29,VWS V14.01,2013-05-07 02:49:00,
2013-05-06 19:54:00,60.1,54.6,30.03,West,279,0.0,6.0,82,0.00,,---,0.29,VWS V14.01,2013-05-07 02:54:00,
2013-05-06 19:59:00,60.0,54.8,30.03,SSW,197,0.0,3.0,83,0.00,,---,0.29,VWS V14.01,2013-05-07 02:59:00,
2013-05-06 20:04:00,59.9,54.7,30.03,South,177,2.0,3.0,83,0.00,,---,0.29,VWS V14.01,2013-05-07 03:04:00,
2013-05-06 20:09:00,59.8,54.6,30.03,East,80,0.0,4.0,83,0.00,,---,0.29,VWS V14.01,2013-05-07 03:09:00,
2013-05-06 20:14:00,59.7,54.9,30.04,ESE,109,4.0,5.0,84,0.00,,---,0.29,VWS V14.01,2013-05-07 03:14:00,
2013-05-06 20:19:00,59.6,54.8,30.04,ESE,110,0.0,6.0,84,0.00,,---,0.29,VWS V14.01,2013-05-07 03:19:00,
2013-05-06 20:24:00,59.5,54.7,30.04,ESE,108,0.0,6.0,84,0.00,,---,0.29,VWS V14.01,2013-05-07 03:24:00,
2013-05-06 20:29:00,59.5,55.0,30.04,East,98,0.0,1.0,85,0.00,,---,0.29,VWS V14.01,2013-05-07 03:29:00,
2013-05-06 20:34:00,59.5,55.0,30.04,SE,126,0.0,2.0,85,0.00,,---,0.29,VWS V14.01,2013-05-07 03:34:00,
2013-05-06 20:39:00,59.4,54.9,30.04,ESE,115,0.0,2.0,85,0.00,,---,0.29,VWS V14.01,2013-05-07 03:39:00,
2013-05-06 20:44:00,59.3,54.8,30.04,East,90,0.0,5.0,85,0.00,,---,0.29,VWS V14.01,2013-05-07 03:44:00,
2013-05-06 20:49:00,59.2,54.7,30.04,ESE,117,2.0,5.0,85,0.00,,---,0.29,VWS V14.01,2013-05-07 03:49:00,
2013-05-06 20:54:00,59.1,54.6,30.04,East,99,0.0,5.0,85,0.00,,---,0.29,VWS V14.01,2013-05-07 03:54:00,
2013-05-06 20:59:00,59.0,54.5,30.05,South,186,0.0,0.0,85,0.00,,---,0.29,VWS V14.01,2013-05-07 03:59:00,
2013-05-06 21:01:00,59.0,54.5,30.05,SSE,167,0.0,0.0,85,0.00,,---,0.29,VWS V14.01,2013-05-07 04:01:00,
2013-05-06 21:06:00,58.9,54.7,30.05,SE,141,8.0,11.0,86,0.00,,---,0.29,VWS V14.01,2013-05-07 04:06:00,
2013-05-06 21:11:00,58.8,54.6,30.05,ESE,106,0.0,11.0,86,0.00,,---,0.29,VWS V14.01,2013-05-07 04:11:00,
2013-05-06 21:16:00,58.6,54.4,30.05,East,98,0.0,11.0,86,0.00,,---,0.29,VWS V14.01,2013-05-07 04:16:00,
2013-05-06 21:21:00,58.5,54.3,30.05,ENE,58,0.0,11.0,86,0.00,,---,0.29,VWS V14.01,2013-05-07 04:21:00,
2013-05-06 21:26:00,58.3,54.1,30.05,NNE,13,0.0,11.0,86,0.00,,---,0.29,VWS V14.01,2013-05-07 04:26:00,
2013-05-06 21:31:00,58.2,54.4,30.05,NNE,13,0.0,0.0,87,0.00,,---,0.29,VWS V14.01,2013-05-07 04:31:00,
2013-05-06 21:36:00,58.1,54.3,30.05,NNE,13,0.0,1.0,87,0.00,,---,0.29,VWS V14.01,2013-05-07 04:36:00,
2013-05-06 21:41:00,58.1,54.6,30.06,NNE,13,0.0,1.0,88,0.00,,---,0.29,VWS V14.01,2013-05-07 04:41:00,
2013-05-06 21:46:00,58.2,54.7,30.06,NNE,13,0.0,1.0,88,0.00,,---,0.29,VWS V14.01,2013-05-07 04:46:00,
2013-05-06 21:51:00,58.1,54.6,30.06,NNE,13,0.0,1.0,88,0.00,,---,0.29,VWS V14.01,2013-05-07 04:51:00,
2013-05-06 21:56:00,58.1,54.6,30.06,NNE,13,0.0,1.0,88,0.00,,---,0.29,VWS V14.01,2013-05-07 04:56:00,
2013-05-06 22:01:00,58.0,54.8,30.06,ESE,117,0.0,2.0,89,0.00,,---,0.29,VWS V14.01,2013-05-07 05:01:00,
2013-05-06 22:06:00,58.0,54.8,30.06,East,92,0.0,2.0,89,0.00,,---,0.29,VWS V14.01,2013-05-07 05:06:00,
2013-05-06 22:11:00,57.9,54.7,30.06,East,92,0.0,2.0,89,0.00,,---,0.29,VWS V14.01,2013-05-07 05:11:00,
2013-05-06 22:16:00,57.8,54.6,30.06,East,92,0.0,2.0,89,0.00,,---,0.29,VWS V14.01,2013-05-07 05:16:00,
2013-05-06 22:21:00,57.7,54.5,30.06,East,94,0.0,2.0,89,0.00,,---,0.29,VWS V14.01,2013-05-07 05:21:00,
2013-05-06 22:26:00,57.6,54.4,30.07,East,94,0.0,2.0,89,0.00,,---,0.29,VWS V14.01,2013-05-07 05:26:00,
2013-05-06 22:31:00,57.6,54.4,30.07,East,94,0.0,0.0,89,0.00,,---,0.29,VWS V14.01,2013-05-07 05:31:00,
2013-05-06 22:36:00,57.5,54.3,30.07,East,94,0.0,0.0,89,0.00,,---,0.29,VWS V14.01,2013-05-07 05:36:00,
2013-05-06 22:41:00,57.5,54.3,30.07,East,94,0.0,0.0,89,0.00,,---,0.29,VWS V14.01,2013-05-07 05:41:00,
2013-05-06 22:46:00,57.4,54.2,30.06,East,94,0.0,1.0,89,0.00,,---,0.29,VWS V14.01,2013-05-07 05:46:00,
2013-05-06 22:51:00,57.4,54.2,30.07,East,94,0.0,1.0,89,0.00,,---,0.29,VWS V14.01,2013-05-07 05:51:00,
2013-05-06 22:56:00,57.3,54.1,30.07,East,94,0.0,1.0,89,0.00,,---,0.29,VWS V14.01,2013-05-07 05:56:00,
2013-05-06 23:01:00,57.2,54.3,30.07,East,94,0.0,0.0,90,0.00,,---,0.29,VWS V14.01,2013-05-07 06:01:00,
2013-05-06 23:06:00,57.2,54.3,30.07,East,94,0.0,1.0,90,0.00,,---,0.29,VWS V14.01,2013-05-07 06:06:00,
2013-05-06 23:11:00,57.2,54.3,30.06,East,94,0.0,1.0,90,0.00,,---,0.29,VWS V14.01,2013-05-07 06:11:00,
2013-05-06 23:16:00,57.1,54.2,30.07,East,94,0.0,1.0,90,0.00,,---,0.29,VWS V14.01,2013-05-07 06:16:00,
2013-05-06 23:21:00,57.1,54.2,30.07,East,94,0.0,1.0,90,0.00,,---,0.29,VWS V14.01,2013-05-07 06:21:00,
2013-05-06 23:26:00,57.1,54.2,30.07,East,94,0.0,1.0,90,0.00,,---,0.29,VWS V14.01,2013-05-07 06:26:00,
2013-05-06 23:31:00,57.2,54.6,30.07,East,94,0.0,0.0,91,0.00,,---,0.29,VWS V14.01,2013-05-07 06:31:00,
2013-05-06 23:36:00,57.2,54.6,30.07,East,94,0.0,1.0,91,0.00,,---,0.29,VWS V14.01,2013-05-07 06:36:00,
2013-05-06 23:41:00,57.3,54.7,30.07,East,94,0.0,1.0,91,0.00,,---,0.29,VWS V14.01,2013-05-07 06:41:00,
2013-05-06 23:46:00,57.4,54.8,30.07,East,94,0.0,1.0,91,0.00,,---,0.29,VWS V14.01,2013-05-07 06:46:00,
2013-05-06 23:51:00,57.4,54.8,30.07,East,94,0.0,1.0,91,0.00,,---,0.29,VWS V14.01,2013-05-07 06:51:00,
2013-05-06 23:56:00,57.4,54.8,30.07,East,94,0.0,1.0,91,0.00,,---,0.29,VWS V14.01,2013-05-07 06:56:00,